Location: *
(50.8512°N, 5.6907°E)
Time: 07:12:09
(UTC+00:00)

STARLINK-1243 - Pass Details

Date: 09 April 2020
Orbit: 549 x 550 km, 53.0° (Epoch: 03 June)

Event Time Altitude Azimuth Distance (km) Brightness Sun altitude
Rises 19:27:40 0° 288° (WNW) 2,723 9.3 -10.3°
Reaches altitude 10° 19:29:54 10° 288° (WNW) 1,828 7.8 -10.6°
Maximum altitude 19:34:04 85° 200° (SSW) 558 3.6 -11.2°
Enters shadow 19:37:09 17° 113° (ESE) 1,409 5.0 -11.6°
